User: anonymous   Login
Location: Drayton Valley
(53.2170°N, 114.9830°W)
Time: 12:02:13
(UTC-06:00)
Language:

MOZ.5/SAFIR/RUBIN 5/SL-8 - Orbit

View from above orbital plane
View from above orbital plane
View from above satellite
View from above satellite

Ground track
Ground track

The orbit data is extracted from the following two-line orbital elements,

1 28898U 05043G   16207.51992226  .00000081  00000-0  25919-4 0  9998
2 28898  97.8840   6.3580 0020900 132.4545 227.8428 14.60113326572161
Epoch (UTC): 25 July 2016 12:28:41
Eccentricity: 0.0020900
inclination: 97.8840°
perigee height: 678 km
apogee height: 707 km
right ascension of ascending node: 6.3580°
argument of perigee: 132.4545°
revolutions per day: 14.60113326
mean anomaly at epoch: 227.8428°
orbit number at epoch: 57216

The dashed part of the orbit path shows where the satellite is in the earth's shadow,  

DLR